Time,TemperatureF,DewpointF,PressureIn,WindDirection,WindDirectionDegrees,WindSpeedMPH,WindSpeedGustMPH,Humidity,HourlyPrecipIn,Conditions,Clouds,dailyrainin,SoftwareType,DateUTC
2013-02-07 00:15:00,27.6,23.0,30.30,South,172,0.0,2.0,82,0.00,,,0.00,weatherlink.com 1.10,2013-02-07 05:15:00,
2013-02-07 00:30:00,27.0,22.0,30.31,South,170,0.0,0.0,82,0.00,,,0.00,weatherlink.com 1.10,2013-02-07 05:30:00,
2013-02-07 00:45:00,26.6,22.0,30.32,South,170,0.0,0.0,84,0.00,,,0.00,weatherlink.com 1.10,2013-02-07 05:45:00,
2013-02-07 01:00:00,26.3,22.0,30.32,South,170,0.0,1.0,85,0.00,,,0.00,weatherlink.com 1.10,2013-02-07 06:00:00,
2013-02-07 01:15:00,26.0,22.0,30.31,SSE,160,0.0,0.0,86,0.00,,,0.00,weatherlink.com 1.10,2013-02-07 06:15:00,
2013-02-07 01:30:00,26.3,22.0,30.31,SSE,159,0.0,0.0,85,0.00,,,0.00,weatherlink.com 1.10,2013-02-07 06:30:00,
2013-02-07 01:45:00,26.3,22.0,30.31,WNW,284,0.0,2.0,85,0.00,,,0.00,weatherlink.com 1.10,2013-02-07 06:45:00,
2013-02-07 02:00:00,26.7,23.0,30.32,WSW,253,0.0,4.0,85,0.00,,,0.00,weatherlink.com 1.10,2013-02-07 07:00:00,
2013-02-07 02:15:00,26.7,23.0,30.32,SE,125,0.0,0.0,85,0.00,,,0.00,weatherlink.com 1.10,2013-02-07 07:15:00,
2013-02-07 02:30:00,26.5,23.0,30.32,SE,131,0.0,1.0,85,0.00,,,0.00,weatherlink.com 1.10,2013-02-07 07:30:00,
2013-02-07 02:45:00,26.4,23.0,30.31,SW,219,0.0,2.0,86,0.00,,,0.00,weatherlink.com 1.10,2013-02-07 07:45:00,
2013-02-07 03:00:00,26.6,23.0,30.31,SW,226,0.0,3.0,86,0.00,,,0.00,weatherlink.com 1.10,2013-02-07 08:00:00,
2013-02-07 03:15:00,26.9,23.0,30.30,West,274,1.0,5.0,86,0.00,,,0.00,weatherlink.com 1.10,2013-02-07 08:15:00,
2013-02-07 03:30:00,26.8,23.0,30.30,SW,224,0.0,3.0,86,0.00,,,0.00,weatherlink.com 1.10,2013-02-07 08:30:00,
2013-02-07 03:45:00,26.5,23.0,30.29,SSW,195,0.0,3.0,86,0.00,,,0.00,weatherlink.com 1.10,2013-02-07 08:45:00,
2013-02-07 04:01:00,26.3,23.0,30.30,SW,218,0.0,3.0,87,0.00,,,0.00,weatherlink.com 1.10,2013-02-07 09:01:00,
2013-02-07 04:15:00,26.4,23.0,30.31,SSE,155,2.0,4.0,87,0.00,,,0.00,weatherlink.com 1.10,2013-02-07 09:15:00,
2013-02-07 04:30:00,26.6,23.0,30.31,WSW,245,2.0,4.0,86,0.00,,,0.00,weatherlink.com 1.10,2013-02-07 09:30:00,
2013-02-07 04:45:00,26.5,23.0,30.30,SE,146,1.0,3.0,87,0.00,,,0.00,weatherlink.com 1.10,2013-02-07 09:45:00,
2013-02-07 05:00:00,26.5,23.0,30.30,SSW,211,0.0,3.0,87,0.00,,,0.00,weatherlink.com 1.10,2013-02-07 10:00:00,
2013-02-07 05:15:00,27.0,24.0,30.30,SSW,203,1.0,3.0,87,0.00,,,0.00,weatherlink.com 1.10,2013-02-07 10:15:00,
2013-02-07 05:30:00,26.9,23.0,30.32,SW,218,0.0,2.0,86,0.00,,,0.00,weatherlink.com 1.10,2013-02-07 10:30:00,
2013-02-07 05:45:00,26.7,23.0,30.34,SW,219,0.0,0.0,86,0.00,,,0.00,weatherlink.com 1.10,2013-02-07 10:45:00,
2013-02-07 06:00:00,26.6,23.0,30.34,SSW,201,0.0,1.0,86,0.00,,,0.00,weatherlink.com 1.10,2013-02-07 11:00:00,
2013-02-07 06:15:00,26.5,23.0,30.34,South,172,3.0,3.0,87,0.00,,,0.00,weatherlink.com 1.10,2013-02-07 11:15:00,
2013-02-07 06:30:00,26.7,23.0,30.34,SW,224,3.0,6.0,86,0.00,,,0.00,weatherlink.com 1.10,2013-02-07 11:30:00,
2013-02-07 06:45:00,26.7,23.0,30.34,WSW,238,0.0,3.0,86,0.00,,,0.00,weatherlink.com 1.10,2013-02-07 11:45:00,
2013-02-07 07:00:00,26.9,23.0,30.34,SW,214,1.0,3.0,86,0.00,,,0.00,weatherlink.com 1.10,2013-02-07 12:00:00,
2013-02-07 07:15:00,27.1,23.0,30.34,SW,226,2.0,3.0,85,0.00,,,0.00,weatherlink.com 1.10,2013-02-07 12:15:00,
2013-02-07 07:30:00,27.3,23.0,30.35,ESE,117,1.0,2.0,85,0.00,,,0.00,weatherlink.com 1.10,2013-02-07 12:30:00,
2013-02-07 07:46:00,27.8,24.0,30.35,SSW,211,0.0,2.0,85,0.00,,,0.00,weatherlink.com 1.10,2013-02-07 12:46:00,
2013-02-07 08:00:00,28.4,24.0,30.36,ESE,113,0.0,1.0,84,0.00,,,0.00,weatherlink.com 1.10,2013-02-07 13:00:00,
2013-02-07 08:16:00,28.6,24.0,30.36,SW,229,0.0,3.0,83,0.00,,,0.00,weatherlink.com 1.10,2013-02-07 13:16:00,
2013-02-07 08:30:00,28.3,24.0,30.36,SW,224,0.0,1.0,83,0.00,,,0.00,weatherlink.com 1.10,2013-02-07 13:30:00,
2013-02-07 08:48:00,28.3,24.0,30.36,WSW,240,0.0,1.0,83,0.00,,,0.00,weatherlink.com 1.10,2013-02-07 13:48:00,
2013-02-07 09:01:00,28.3,24.0,30.37,WSW,245,0.0,1.0,83,0.00,,,0.00,weatherlink.com 1.10,2013-02-07 14:01:00,
2013-02-07 09:15:00,28.6,24.0,30.37,SSW,212,0.0,2.0,83,0.00,,,0.00,weatherlink.com 1.10,2013-02-07 14:15:00,
2013-02-07 09:30:00,28.8,24.0,30.37,SW,229,0.0,2.0,82,0.00,,,0.00,weatherlink.com 1.10,2013-02-07 14:30:00,
2013-02-07 09:45:00,29.2,24.0,30.37,SW,229,1.0,2.0,82,0.00,,,0.00,weatherlink.com 1.10,2013-02-07 14:45:00,
2013-02-07 10:00:00,29.8,25.0,30.37,SW,226,1.0,4.0,81,0.00,,,0.00,weatherlink.com 1.10,2013-02-07 15:00:00,
2013-02-07 10:15:00,30.7,26.0,30.37,SW,229,1.0,4.0,82,0.00,,,0.00,weatherlink.com 1.10,2013-02-07 15:15:00,
2013-02-07 10:31:00,31.3,26.0,30.36,SW,233,0.0,2.0,80,0.00,,,0.00,weatherlink.com 1.10,2013-02-07 15:31:00,
2013-02-07 10:46:00,31.7,26.0,30.36,SSE,162,2.0,6.0,79,0.00,,,0.00,weatherlink.com 1.10,2013-02-07 15:46:00,
2013-02-07 11:01:00,32.2,26.0,30.35,SSW,205,2.0,4.0,79,0.00,,,0.00,weatherlink.com 1.10,2013-02-07 16:01:00,
2013-02-07 11:16:00,32.4,27.0,30.35,SW,217,2.0,5.0,79,0.00,,,0.00,weatherlink.com 1.10,2013-02-07 16:16:00,
2013-02-07 11:31:00,33.0,27.0,30.34,WSW,246,2.0,4.0,77,0.00,,,0.00,weatherlink.com 1.10,2013-02-07 16:31:00,
2013-02-07 11:46:00,33.0,26.0,30.33,WNW,303,1.0,6.0,76,0.00,,,0.00,weatherlink.com 1.10,2013-02-07 16:46:00,
2013-02-07 12:01:00,33.3,26.0,30.32,SSW,203,1.0,5.0,75,0.00,,,0.00,weatherlink.com 1.10,2013-02-07 17:01:00,
2013-02-07 12:16:00,33.4,26.0,30.32,SSW,205,2.0,6.0,74,0.00,,,0.00,weatherlink.com 1.10,2013-02-07 17:16:00,
2013-02-07 12:31:00,33.3,26.0,30.31,SSW,213,1.0,4.0,74,0.00,,,0.00,weatherlink.com 1.10,2013-02-07 17:31:00,
2013-02-07 12:46:00,34.1,27.0,30.30,SW,226,2.0,4.0,75,0.00,,,0.00,weatherlink.com 1.10,2013-02-07 17:46:00,
2013-02-07 13:01:00,34.0,27.0,30.29,WNW,285,0.0,5.0,74,0.00,,,0.00,weatherlink.com 1.10,2013-02-07 18:01:00,
2013-02-07 13:16:00,34.1,27.0,30.29,SW,232,2.0,4.0,75,0.00,,,0.00,weatherlink.com 1.10,2013-02-07 18:16:00,
2013-02-07 13:31:00,34.1,27.0,30.29,WSW,252,3.0,6.0,75,0.00,,,0.00,weatherlink.com 1.10,2013-02-07 18:31:00,
2013-02-07 13:46:00,34.7,28.0,30.28,SW,229,1.0,6.0,75,0.00,,,0.00,weatherlink.com 1.10,2013-02-07 18:46:00,
2013-02-07 14:01:00,35.3,28.0,30.27,NW,304,2.0,4.0,76,0.00,,,0.00,weatherlink.com 1.10,2013-02-07 19:01:00,
2013-02-07 14:16:00,35.9,29.0,30.26,SW,231,1.0,4.0,75,0.00,,,0.00,weatherlink.com 1.10,2013-02-07 19:16:00,
2013-02-07 14:31:00,35.5,29.0,30.26,SW,218,1.0,6.0,77,0.00,,,0.00,weatherlink.com 1.10,2013-02-07 19:31:00,
2013-02-07 14:46:00,36.0,29.0,30.26,SW,222,2.0,5.0,76,0.00,,,0.00,weatherlink.com 1.10,2013-02-07 19:46:00,
2013-02-07 15:01:00,35.1,28.0,30.26,WSW,238,3.0,5.0,76,0.00,,,0.00,weatherlink.com 1.10,2013-02-07 20:01:00,
2013-02-07 15:16:00,34.7,29.0,30.25,SW,217,0.0,4.0,78,0.00,,,0.00,weatherlink.com 1.10,2013-02-07 20:16:00,
2013-02-07 15:31:00,34.5,29.0,30.24,SW,226,3.0,4.0,79,0.00,,,0.00,weatherlink.com 1.10,2013-02-07 20:31:00,
2013-02-07 15:46:00,34.4,29.0,30.23,West,259,1.0,4.0,80,0.00,,,0.00,weatherlink.com 1.10,2013-02-07 20:46:00,
2013-02-07 16:01:00,34.1,28.0,30.23,SSE,153,0.0,3.0,78,0.00,,,0.00,weatherlink.com 1.10,2013-02-07 21:01:00,
2013-02-07 16:31:00,32.7,28.0,30.22,SSW,207,1.0,8.0,82,0.00,,,0.00,weatherlink.com 1.10,2013-02-07 21:31:00,
2013-02-07 16:46:00,32.2,28.0,30.24,SSE,165,2.0,9.0,84,0.00,,,0.00,weatherlink.com 1.10,2013-02-07 21:46:00,
2013-02-07 17:01:00,31.3,27.0,30.24,NE,43,2.0,7.0,83,0.00,,,0.00,weatherlink.com 1.10,2013-02-07 22:01:00,
2013-02-07 17:16:00,30.8,27.0,30.24,SW,229,0.0,5.0,84,0.00,,,0.00,weatherlink.com 1.10,2013-02-07 22:16:00,
2013-02-07 17:31:00,30.6,26.0,30.24,WSW,250,0.0,2.0,84,0.00,,,0.00,weatherlink.com 1.10,2013-02-07 22:31:00,
2013-02-07 17:47:00,30.5,27.0,30.25,WSW,238,8.0,8.0,85,0.00,,,0.00,weatherlink.com 1.10,2013-02-07 22:47:00,
2013-02-07 18:01:00,30.2,25.0,30.25,West,273,4.0,6.0,82,0.00,,,0.00,weatherlink.com 1.10,2013-02-07 23:01:00,
2013-02-07 18:16:00,30.0,25.0,30.25,WSW,240,4.0,9.0,81,0.00,,,0.00,weatherlink.com 1.10,2013-02-07 23:16:00,
2013-02-07 18:31:00,30.0,25.0,30.25,West,279,4.0,5.0,82,0.00,,,0.00,weatherlink.com 1.10,2013-02-07 23:31:00,
2013-02-07 18:46:00,30.4,26.0,30.24,West,278,5.0,11.0,82,0.00,,,0.00,weatherlink.com 1.10,2013-02-07 23:46:00,
2013-02-07 19:02:00,30.4,26.0,30.23,West,281,7.0,10.0,83,0.00,,,0.00,weatherlink.com 1.10,2013-02-08 00:02:00,
2013-02-07 19:17:00,30.8,26.0,30.23,SE,145,1.0,6.0,83,0.00,,,0.00,weatherlink.com 1.10,2013-02-08 00:17:00,
2013-02-07 19:31:00,30.9,27.0,30.22,SSW,200,2.0,10.0,84,0.00,,,0.00,weatherlink.com 1.10,2013-02-08 00:31:00,
2013-02-07 19:49:00,31.0,26.0,30.22,South,190,2.0,7.0,83,0.00,,,0.00,weatherlink.com 1.10,2013-02-08 00:49:00,
2013-02-07 20:01:00,30.3,26.0,30.21,ESE,122,0.0,10.0,83,0.00,,,0.00,weatherlink.com 1.10,2013-02-08 01:01:00,
2013-02-07 20:16:00,30.0,25.0,30.22,South,181,4.0,5.0,83,0.00,,,0.00,weatherlink.com 1.10,2013-02-08 01:16:00,
2013-02-07 20:31:00,30.5,26.0,30.21,NW,318,0.0,5.0,83,0.00,,,0.00,weatherlink.com 1.10,2013-02-08 01:31:00,
2013-02-07 20:46:00,30.8,26.0,30.20,NNW,343,3.0,8.0,83,0.00,,,0.00,weatherlink.com 1.10,2013-02-08 01:46:00,
2013-02-07 21:02:00,30.8,26.0,30.21,SSE,157,1.0,12.0,83,0.00,,,0.00,weatherlink.com 1.10,2013-02-08 02:02:00,
2013-02-07 21:17:00,31.1,27.0,30.21,West,281,0.0,7.0,84,0.00,,,0.00,weatherlink.com 1.10,2013-02-08 02:17:00,
2013-02-07 21:32:00,31.3,27.0,30.20,WSW,250,3.0,5.0,84,0.00,,,0.00,weatherlink.com 1.10,2013-02-08 02:32:00,
2013-02-07 21:46:00,31.2,27.0,30.20,SSW,198,0.0,9.0,85,0.00,,,0.00,weatherlink.com 1.10,2013-02-08 02:46:00,
2013-02-07 22:02:00,31.0,28.0,30.20,ENE,63,1.0,8.0,87,0.00,,,0.00,weatherlink.com 1.10,2013-02-08 03:02:00,
2013-02-07 22:17:00,31.2,28.0,30.20,NE,51,1.0,6.0,88,0.00,,,0.00,weatherlink.com 1.10,2013-02-08 03:17:00,
2013-02-07 22:32:00,31.8,29.0,30.18,WSW,250,2.0,3.0,89,0.00,,,0.00,weatherlink.com 1.10,2013-02-08 03:32:00,
2013-02-07 22:47:00,32.0,29.0,30.18,WSW,240,2.0,4.0,89,0.00,,,0.00,weatherlink.com 1.10,2013-02-08 03:47:00,
2013-02-07 23:02:00,32.0,30.0,30.17,West,268,1.0,6.0,91,0.00,,,0.00,weatherlink.com 1.10,2013-02-08 04:02:00,
2013-02-07 23:17:00,31.8,30.0,30.17,West,271,1.0,3.0,92,0.00,,,0.00,weatherlink.com 1.10,2013-02-08 04:17:00,
2013-02-07 23:34:00,31.5,30.0,30.16,WSW,239,2.0,4.0,93,0.00,,,0.00,weatherlink.com 1.10,2013-02-08 04:34:00,
2013-02-07 23:47:00,31.1,29.0,30.15,SW,217,3.0,4.0,93,0.00,,,0.00,weatherlink.com 1.10,2013-02-08 04:47:00,